QPF
0.00 0.00 0.00 0.00 0.00 0.00 0.00 0.00 0.00 0.00 0.00 0.00 0.00 0.00 0.00 0.00 0.00 0.00 0.00 0.00 0.00 0.00 0.00 0.01 0.01 0.01 0.01 0.01 0.01 0.01 0.01 0.00 0.00 0.00 0.00 0.00 0.00 0.00 0.01 0.01 0.01 0.00 0.00
0.00 0.00 0.00 0.00 0.00 0.00 0.00 0.00 0.00 0.00 0.00 0.00 0.00 0.00 0.00 0.00 0.00 0.00 0.00 0.00 0.00 0.00 0.00 0.00 0.00 0.00 0.00 0.01 0.01 0.00 0.00 0.00 0.00 0.00 0.00 0.00 0.00 0.00 0.00 0.02 0.01 0.01 0.00
0.00 0.00 0.00 0.00 0.00 0.00 0.00 0.00 0.00 0.00 0.00 0.00 0.00 0.00 0.00 0.00 0.00 0.00 0.00 0.00 0.00 0.00 0.00 0.00 0.00 0.00 0.00 0.00 0.00 0.00 0.00 0.00 0.00 0.00 0.00 0.00 0.00 0.00 0.00 0.01 0.02 0.01 0.01
0.00 0.00 0.00 0.00 0.00 0.00 0.00 0.00 0.00 0.00 0.00 0.00 0.00 0.00 0.00 0.00 0.00 0.00 0.00 0.00 0.00 0.00 0.00 0.00 0.00 0.00 0.00 0.00 0.00 0.00 0.00 0.00 0.00 0.00 0.00 0.00 0.00 0.00 0.00 0.00 0.00 0.00 0.01
0.00 0.00 0.00 0.00 0.00 0.00 0.00 0.00 0.00 0.00 0.00 0.00 0.00 0.00 0.00 0.00 0.00 0.00 0.00 0.00 0.00 0.00 0.00 0.00 0.00 0.00 0.00 0.00 0.00 0.00 0.00 0.00 0.00 0.00 0.00 0.00 0.00 0.00 0.00 0.00 0.00 0.00 0.00
0.00 0.00 0.00 0.00 0.00 0.00 0.00 0.00 0.00 0.00 0.00 0.00 0.00 0.00 0.00 0.00 0.00 0.00 0.00 0.00 0.00 0.00 0.00 0.00 0.00 0.00 0.00 0.00 0.00 0.00 0.00 0.00 0.00 0.00 0.00 0.00 0.00 0.00 0.00 0.01 0.00 0.00 0.00
0.00 0.00 0.00 0.00 0.00 0.00 0.00 0.00 0.00 0.00 0.00 0.00 0.00 0.00 0.00 0.00 0.00 0.00 0.00 0.00 0.00 0.00 0.00 0.00 0.00 0.00 0.00 0.00 0.00 0.00 0.00 0.00 0.00 0.00 0.00 0.00 0.00 0.00 0.00 0.00 0.00 0.00 0.00
0.00 0.00 0.00 0.00 0.00 0.00 0.00 0.00 0.00 0.00 0.00 0.00 0.00 0.00 0.00 0.00 0.00 0.00 0.00 0.00 0.00 0.00 0.00 0.00 0.00 0.00 0.00 0.00 0.00 0.00 0.00 0.00 0.00 0.00 0.00 0.00 0.00 0.00 0.00 0.00 0.00 0.00 0.00
0.00 0.00 0.00 0.00 0.00 0.00 0.00 0.00 0.00 0.00 0.00 0.00 0.00 0.00 0.00 0.00 0.00 0.00 0.00 0.00 0.00 0.00 0.00 0.00 0.00 0.00 0.00 0.00 0.00 0.00 0.00 0.00 0.00 0.00 0.00 0.00 0.00 0.00 0.00 0.00 0.00 0.00 0.00
0.00 0.00 0.00 0.00 0.00 0.00 0.00 0.00 0.00 0.00 0.00 0.00 0.00 0.00 0.00 0.00 0.00 0.00 0.00 0.00 0.00 0.00 0.00 0.00 0.00 0.00 0.00 0.00 0.00 0.00 0.00 0.00 0.00 0.00 0.00 0.00 0.00 0.00 0.00 0.00 0.00 0.00 0.00
0.00 0.00 0.00 0.00 0.00 0.00 0.00 0.00 0.00 0.00 0.00 0.00 0.00 0.00 0.00 0.00 0.00 0.00 0.00 0.00 0.00 0.00 0.00 0.00 0.00 0.00 0.00 0.00 0.00 0.00 0.00 0.00 0.00 0.00 0.00 0.00 0.00 0.00 0.00 0.00 0.00 0.00 0.00
0.00 0.00 0.00 0.00 0.00 0.00 0.00 0.00 0.00 0.00 0.00 0.00 0.00 0.00 0.00 0.00 0.00 0.00 0.00 0.00 0.00 0.00 0.00 0.00 0.00 0.00 0.00 0.00 0.00 0.00 0.00 0.00 0.00 0.00 0.00 0.00 0.00 0.00 0.00 0.00 0.00 0.00 0.00
0.00 0.00 0.00 0.00 0.00 0.00 0.00 0.00 0.00 0.00 0.00 0.00 0.00 0.00 0.00 0.00 0.00 0.00 0.00 0.00 0.00 0.00 0.00 0.00 0.00 0.00 0.00 0.00 0.00 0.00 0.00 0.00 0.00 0.00 0.00 0.00 0.00 0.00 0.00 0.00 0.00 0.00 0.00
0.00 0.00 0.00 0.00 0.00 0.00 0.00 0.00 0.00 0.00 0.00 0.00 0.00 0.00 0.00 0.00 0.00 0.00 0.00 0.00 0.00 0.00 0.00 0.00 0.00 0.00 0.00 0.00 0.00 0.00 0.00 0.00 0.00 0.00 0.00 0.00 0.00 0.00 0.00 0.00 0.00 0.00 0.00
0.00 0.00 0.00 0.00 0.00 0.00 0.00 0.00 0.00 0.00 0.00 0.00 0.00 0.00 0.00 0.00 0.00 0.00 0.00 0.00 0.00 0.00 0.00 0.00 0.00 0.00 0.00 0.00 0.00 0.00 0.00 0.00 0.00 0.00 0.00 0.00 0.00 0.00 0.00 0.00 0.00 0.00 0.00
0.00 0.00 0.00 0.00 0.00 0.00 0.00 0.00 0.00 0.00 0.00 0.00 0.00 0.00 0.00 0.00 0.00 0.00 0.00 0.00 0.00 0.00 0.00 0.00 0.00 0.00 0.00 0.00 0.00 0.00 0.00 0.00 0.00 0.00 0.00 0.00 0.00 0.00 0.00 0.00 0.00 0.00 0.00
0.00 0.00 0.00 0.00 0.00 0.00 0.00 0.00 0.00 0.00 0.00 0.00 0.00 0.00 0.00 0.00 0.00 0.00 0.00 0.00 0.00 0.00 0.00 0.00 0.00 0.00 0.00 0.00 0.00 0.00 0.00 0.00 0.00 0.00 0.00 0.00 0.00 0.00 0.00 0.00 0.00 0.00 0.00
0.00 0.00 0.00 0.00 0.00 0.00 0.00 0.00 0.00 0.00 0.00 0.00 0.00 0.00 0.00 0.00 0.00 0.00 0.00 0.00 0.00 0.00 0.00 0.00 0.00 0.00 0.00 0.00 0.00 0.00 0.00 0.00 0.00 0.00 0.00 0.00 0.00 0.00 0.00 0.00 0.00 0.00 0.00
0.00 0.00 0.00 0.00 0.00 0.00 0.00 0.00 0.00 0.00 0.00 0.00 0.00 0.00 0.00 0.00 0.00 0.00 0.00 0.00 0.00 0.00 0.00 0.00 0.00 0.00 0.00 0.00 0.00 0.00 0.00 0.00 0.00 0.00 0.00 0.00 0.00 0.00 0.00 0.00 0.00 0.00 0.00
0.00 0.00 0.00 0.00 0.00 0.00 0.00 0.00 0.00 0.00 0.00 0.00 0.00 0.00 0.00 0.00 0.00 0.00 0.00 0.00 0.00 0.00 0.00 0.00 0.00 0.00 0.00 0.00 0.00 0.00 0.00 0.00 0.00 0.00 0.00 0.00 0.00 0.00 0.00 0.00 0.00 0.00 0.00
0.00 0.00 0.00 0.00 0.00 0.00 0.00 0.00 0.00 0.00 0.00 0.00 0.00 0.00 0.00 0.00 0.00 0.00 0.00 0.00 0.00 0.00 0.00 0.00 0.00 0.00 0.00 0.00 0.00 0.00 0.00 0.00 0.00 0.00 0.00 0.00 0.00 0.00 0.00 0.00 0.00 0.00 0.00
0.00 0.00 0.00 0.00 0.00 0.00 0.00 0.00 0.00 0.00 0.00 0.00 0.00 0.00 0.00 0.00 0.00 0.00 0.00 0.01 0.01 0.01 0.00 0.00 0.00 0.00 0.00 0.00 0.00 0.00 0.00 0.00 0.00 0.00 0.00 0.00 0.00 0.00 0.00 0.00 0.00 0.00 0.00
0.00 0.00 0.00 0.00 0.00 0.00 0.00 0.00 0.00 0.00 0.00 0.00 0.00 0.00 0.00 0.00 0.00 0.00 0.00 0.00 0.01 0.01 0.02 0.02 0.01 0.01 0.02 0.01 0.01 0.01 0.00 0.00 0.00 0.00 0.00 0.00 0.00 0.00 0.00 0.00 0.00 0.00 0.00
0.00 0.00 0.00 0.00 0.00 0.00 0.00 0.00 0.00 0.00 0.00 0.00 0.00 0.00 0.00 0.00 0.00 0.00 0.00 0.00 0.00 0.00 0.00 0.00 0.00 0.00 0.00 0.00 0.00 0.00 0.00 0.00 0.00 0.00 0.00 0.01 0.00 0.00 0.00 0.00 0.00 0.00 0.00
0.00 0.00 0.00 0.00 0.00 0.00 0.00 0.00 0.00 0.00 0.00 0.00 0.00 0.00 0.00 0.00 0.00 0.00 0.00 0.00 0.00 0.00 0.00 0.00 0.00 0.01 0.01 0.01 0.02 0.02 0.01 0.01 0.01 0.00 0.00 0.01 0.00 0.00 0.00 0.00 0.00 0.00 0.00
0.00 0.00 0.00 0.00 0.00 0.00 0.00 0.00 0.00 0.00 0.00 0.00 0.00 0.00 0.00 0.00 0.00 0.01 0.01 0.01 0.02 0.01 0.01 0.01 0.01 0.01 0.01 0.00 0.00 0.01 0.01 0.01 0.00 0.00 0.00 0.00 0.00 0.00 0.00 0.00 0.00 0.00 0.00
MSLP
1022.21 1022.41 1022.61 1022.73 1022.74 1022.86 1022.80 1022.80 1022.81 1022.91 1022.98 1023.07 1023.26 1023.45 1023.53 1023.43 1023.73 1023.52 1024.08 1023.71 1023.28 1023.02 1022.54 1022.37 1022.32 1021.83 1021.60 1021.44 1021.44 1021.50 1021.52 1021.42 1021.44 1021.32 1021.23 1021.40 1021.41 1021.40 1021.46 1021.62 1021.85 1022.01 1022.17
1022.62 1022.85 1023.01 1023.16 1023.32 1023.36 1023.44 1023.54 1023.43 1023.31 1023.31 1023.49 1023.76 1023.83 1024.11 1024.23 1023.89 1024.10 1024.31 1024.58 1024.36 1024.30 1023.76 1023.74 1023.29 1022.92 1022.59 1022.38 1022.27 1022.31 1022.28 1022.08 1021.99 1021.89 1021.76 1021.65 1021.61 1021.50 1021.54 1021.65 1021.75 1021.97 1022.18
1023.01 1023.23 1023.42 1023.56 1023.84 1023.98 1023.92 1023.94 1023.98 1023.93 1023.92 1023.93 1024.04 1024.20 1024.28 1024.29 1024.53 1024.64 1024.62 1024.88 1024.85 1025.13 1025.12 1024.79 1024.49 1024.05 1023.69 1023.36 1023.11 1023.05 1022.91 1022.78 1022.58 1022.42 1022.23 1022.08 1021.90 1021.79 1021.75 1021.73 1021.76 1021.88 1022.10
1023.45 1023.58 1023.76 1024.06 1024.19 1024.28 1024.31 1024.40 1024.24 1024.32 1024.35 1024.39 1024.50 1024.47 1024.55 1024.73 1024.77 1024.88 1025.29 1025.48 1025.52 1025.48 1025.79 1025.82 1025.59 1025.18 1024.78 1024.38 1024.04 1023.78 1023.64 1023.47 1023.30 1023.03 1022.86 1022.60 1022.45 1022.22 1022.08 1022.13 1021.99 1021.99 1022.09
1023.82 1023.99 1024.40 1024.74 1024.74 1024.78 1024.73 1024.64 1024.93 1024.73 1024.66 1024.77 1024.88 1024.99 1024.97 1025.14 1025.15 1025.22 1025.63 1025.97 1026.19 1026.18 1026.19 1026.17 1026.28 1026.07 1025.79 1025.39 1024.95 1024.56 1024.32 1024.04 1024.01 1023.58 1023.38 1023.45 1023.07 1022.81 1022.69 1022.67 1022.54 1022.36 1022.38
1024.34 1024.38 1024.67 1025.04 1025.03 1024.93 1025.02 1025.02 1025.09 1025.32 1025.22 1025.10 1025.07 1025.29 1025.44 1025.53 1025.66 1025.78 1025.87 1026.12 1026.56 1026.60 1026.59 1026.57 1026.31 1026.33 1026.54 1026.45 1025.89 1025.40 1025.07 1024.58 1024.42 1024.12 1023.74 1024.20 1023.74 1023.55 1023.34 1023.34 1023.19 1023.01 1023.05
1024.62 1024.73 1024.92 1025.16 1025.33 1025.48 1025.71 1025.63 1025.55 1025.46 1025.69 1025.57 1025.32 1025.56 1025.78 1025.96 1025.95 1026.06 1026.22 1026.34 1026.58 1026.66 1026.77 1026.70 1026.55 1026.56 1026.60 1026.77 1026.61 1026.16 1025.39 1025.20 1024.88 1024.55 1024.53 1024.34 1024.39 1024.24 1024.05 1024.06 1023.83 1023.58 1023.62
1024.88 1024.96 1025.16 1025.47 1025.69 1025.97 1026.13 1026.16 1026.10 1026.03 1026.30 1026.25 1025.54 1025.20 1025.50 1026.10 1026.21 1026.36 1026.45 1026.52 1026.66 1026.73 1026.84 1026.95 1026.89 1026.88 1026.89 1027.17 1027.31 1026.96 1026.62 1026.05 1025.42 1025.26 1024.92 1025.10 1024.98 1024.79 1024.57 1024.62 1024.35 1024.29 1024.12
1025.13 1025.36 1025.62 1025.86 1026.12 1026.14 1026.44 1026.48 1026.55 1026.38 1026.25 1026.65 1026.55 1026.23 1025.65 1025.33 1025.92 1026.57 1026.77 1026.90 1027.04 1026.96 1027.04 1027.10 1027.19 1027.32 1027.26 1027.29 1027.36 1027.46 1027.39 1026.84 1026.28 1026.04 1025.78 1025.40 1025.40 1025.18 1024.97 1024.85 1024.80 1024.72 1024.71
1025.36 1025.69 1025.97 1026.16 1026.42 1026.57 1026.79 1027.01 1026.95 1026.92 1026.61 1026.68 1026.75 1026.84 1026.86 1026.86 1026.15 1026.27 1026.74 1027.09 1027.38 1027.28 1027.33 1027.27 1027.36 1027.52 1027.66 1027.58 1027.82 1027.90 1027.70 1027.40 1027.02 1026.68 1026.32 1026.03 1025.77 1025.56 1025.38 1025.19 1025.11 1025.05 1025.00
1025.71 1026.07 1026.26 1026.48 1026.76 1026.92 1027.16 1027.35 1027.45 1027.46 1027.43 1027.18 1027.25 1027.23 1027.21 1027.18 1027.08 1026.80 1026.40 1026.71 1027.02 1027.36 1027.48 1027.66 1027.60 1027.55 1027.72 1027.79 1027.76 1028.04 1028.16 1027.78 1027.47 1027.17 1026.78 1026.37 1026.05 1025.81 1025.62 1025.54 1025.39 1025.34 1025.35
1025.99 1026.37 1026.68 1026.85 1027.00 1027.19 1027.43 1027.68 1027.92 1028.06 1028.05 1027.94 1027.76 1027.84 1027.82 1027.64 1027.49 1027.51 1027.35 1027.04 1027.25 1027.20 1027.42 1027.45 1027.53 1027.59 1027.86 1027.90 1028.16 1028.32 1028.12 1027.95 1027.78 1027.44 1027.06 1026.60 1026.15 1026.17 1026.15 1025.96 1025.70 1025.64 1025.48
1026.11 1026.64 1026.95 1027.18 1027.34 1027.56 1027.75 1028.02 1028.17 1028.39 1028.50 1028.45 1028.38 1028.27 1028.34 1028.35 1028.46 1028.36 1028.20 1027.81 1027.57 1027.38 1027.31 1027.17 1027.30 1027.49 1027.51 1027.72 1027.88 1028.28 1028.10 1027.87 1027.75 1027.54 1027.07 1026.68 1026.52 1026.72 1026.61 1026.30 1025.98 1025.68 1025.57
1026.21 1026.74 1027.22 1027.56 1027.80 1027.98 1028.20 1028.38 1028.63 1028.87 1028.94 1028.93 1028.85 1028.76 1028.74 1028.75 1028.78 1028.84 1028.68 1028.49 1027.93 1027.39 1027.15 1026.96 1027.04 1027.39 1027.56 1027.80 1028.12 1028.13 1027.90 1027.70 1027.56 1027.33 1027.08 1026.90 1026.87 1026.94 1026.79 1026.43 1026.08 1025.90 1025.81
1026.36 1027.00 1027.44 1027.87 1028.24 1028.40 1028.60 1028.62 1028.69 1028.95 1029.10 1029.09 1029.03 1029.08 1029.12 1029.09 1029.10 1029.03 1029.07 1029.02 1028.80 1028.21 1027.32 1026.82 1027.17 1027.46 1027.70 1027.81 1027.88 1027.88 1027.86 1027.61 1027.44 1027.30 1027.15 1027.01 1026.90 1026.86 1026.63 1026.20 1025.95 1025.91 1025.68
1026.84 1027.18 1027.50 1027.89 1028.31 1028.59 1028.77 1028.84 1028.91 1029.12 1029.24 1029.04 1029.20 1029.18 1029.14 1029.10 1029.09 1029.09 1029.16 1029.20 1029.18 1029.12 1028.58 1027.86 1027.64 1027.61 1027.70 1027.77 1027.63 1027.55 1027.52 1027.28 1027.23 1026.97 1026.83 1026.73 1026.68 1026.63 1026.36 1025.99 1025.73 1025.68 1025.53
1026.97 1027.36 1027.69 1027.95 1028.18 1028.55 1028.81 1028.96 1028.95 1029.09 1029.33 1029.20 1029.08 1029.07 1029.12 1029.16 1029.16 1029.15 1029.20 1029.21 1029.14 1029.09 1028.75 1028.27 1028.08 1028.06 1028.09 1027.83 1027.45 1027.33 1027.10 1026.91 1026.73 1026.45 1026.28 1026.28 1026.22 1026.08 1025.89 1025.68 1025.46 1025.15 1025.10
1026.86 1027.23 1027.55 1027.93 1028.11 1028.42 1028.61 1028.77 1028.88 1028.98 1029.13 1029.04 1029.08 1029.01 1028.99 1029.03 1029.09 1029.11 1029.13 1029.06 1028.96 1028.93 1028.81 1028.44 1028.12 1028.08 1028.09 1027.67 1027.23 1027.07 1026.82 1026.52 1026.30 1025.97 1025.83 1025.74 1025.61 1025.50 1025.38 1025.16 1024.88 1024.78 1024.69
1026.56 1027.02 1027.41 1027.60 1027.85 1028.14 1028.42 1028.60 1028.77 1028.71 1028.84 1028.84 1028.86 1028.95 1028.93 1028.87 1028.88 1028.81 1028.75 1028.73 1028.67 1028.61 1028.47 1028.45 1028.15 1028.08 1027.91 1027.64 1027.01 1026.50 1026.25 1026.17 1025.89 1025.52 1025.32 1025.22 1025.04 1024.95 1024.81 1024.55 1024.35 1024.28 1024.15
1026.57 1026.90 1027.35 1027.56 1027.75 1027.95 1028.17 1028.30 1028.55 1028.48 1028.52 1028.55 1028.56 1028.62 1028.68 1028.70 1028.69 1028.60 1028.44 1028.41 1028.33 1028.30 1028.26 1028.29 1028.08 1027.74 1027.49 1027.05 1026.65 1026.31 1025.87 1025.67 1025.38 1024.93 1024.84 1024.76 1024.52 1024.35 1024.29 1024.15 1023.97 1023.89 1023.80
1027.06 1027.08 1027.31 1027.58 1027.65 1027.77 1027.92 1027.98 1028.20 1028.12 1028.05 1028.07 1027.99 1027.92 1028.08 1028.16 1028.14 1028.11 1028.08 1028.08 1027.99 1028.01 1027.90 1027.57 1027.34 1027.12 1026.70 1026.29 1026.05 1025.74 1025.39 1025.23 1025.05 1024.85 1024.54 1024.27 1024.00 1023.82 1023.72 1023.57 1023.36 1023.23 1023.18
1026.90 1027.36 1027.23 1027.56 1027.58 1027.60 1027.58 1027.73 1027.84 1027.89 1027.80 1027.87 1027.72 1027.61 1027.47 1027.38 1027.48 1027.39 1027.18 1027.26 1027.47 1027.60 1027.22 1026.77 1026.52 1026.28 1025.92 1025.66 1025.34 1025.12 1024.98 1024.78 1024.53 1024.45 1024.27 1023.84 1023.58 1023.39 1023.21 1023.04 1022.83 1022.64 1022.53
1026.68 1026.88 1027.38 1027.75 1027.74 1027.74 1027.41 1027.67 1027.37 1027.31 1027.26 1027.08 1026.94 1026.79 1026.72 1026.49 1026.51 1026.60 1026.55 1026.29 1026.25 1026.02 1025.83 1025.87 1025.67 1025.65 1025.41 1025.30 1025.03 1024.82 1024.53 1024.27 1024.00 1023.89 1023.85 1023.44 1023.36 1023.01 1022.73 1022.34 1022.01 1021.69 1021.56
1026.57 1026.88 1027.12 1027.39 1027.40 1027.49 1027.16 1026.79 1026.65 1026.64 1026.54 1026.30 1026.13 1026.00 1025.95 1025.96 1026.00 1025.94 1025.87 1025.74 1025.66 1025.62 1025.32 1025.05 1024.82 1024.71 1024.60 1024.47 1024.33 1024.05 1023.90 1023.62 1023.36 1023.25 1023.27 1022.72 1022.65 1022.18 1021.94 1021.60 1021.36 1021.07 1020.86
1026.51 1026.80 1026.96 1026.97 1026.96 1026.87 1026.52 1026.26 1026.18 1026.11 1025.92 1025.70 1025.54 1025.40 1025.39 1025.32 1025.20 1025.04 1025.06 1025.17 1025.07 1024.86 1024.55 1024.23 1023.85 1023.61 1023.51 1023.38 1023.32 1023.35 1023.29 1023.21 1022.64 1022.42 1022.39 1022.12 1022.02 1021.69 1021.46 1021.03 1020.82 1020.51 1020.24
1026.13 1026.27 1026.22 1026.16 1026.06 1025.90 1025.80 1025.62 1025.57 1025.65 1025.50 1025.32 1025.07 1024.87 1024.66 1024.44 1024.43 1024.38 1024.36 1024.42 1024.34 1024.03 1023.82 1023.47 1023.11 1023.04 1022.81 1022.73 1022.47 1022.44 1022.48 1022.35 1022.08 1021.67 1021.87 1021.82 1021.70 1021.64 1020.94 1020.47 1020.03 1019.72 1019.56
Thickness
5576 5576 5577 5579 5581 5583 5585 5587 5589 5590 5592 5594 5595 5595 5595 5600 5598 5604 5601 5607 5611 5617 5624 5626 5626 5633 5636 5639 5641 5641 5643 5647 5649 5653 5656 5656 5659 5662 5664 5665 5666 5667 5668
5565 5565 5566 5567 5568 5570 5572 5574 5577 5580 5583 5583 5584 5586 5585 5587 5592 5594 5594 5596 5599 5602 5609 5610 5616 5620 5625 5630 5634 5634 5636 5638 5641 5644 5647 5650 5652 5656 5658 5660 5662 5662 5663
5555 5555 5555 5556 5557 5557 5560 5562 5564 5567 5569 5571 5572 5574 5577 5580 5582 5584 5586 5587 5588 5590 5593 5596 5602 5607 5613 5619 5623 5624 5627 5630 5633 5637 5640 5643 5647 5650 5653 5655 5656 5658 5658
5543 5544 5544 5545 5546 5547 5549 5550 5553 5555 5558 5561 5562 5565 5567 5569 5572 5574 5575 5576 5577 5578 5580 5583 5587 5593 5599 5604 5609 5613 5615 5619 5622 5627 5630 5635 5638 5642 5644 5647 5651 5653 5653
5531 5532 5531 5530 5532 5535 5537 5540 5541 5544 5547 5549 5551 5553 5555 5557 5559 5562 5562 5563 5564 5565 5567 5572 5574 5580 5585 5590 5595 5601 5604 5608 5610 5616 5621 5621 5627 5631 5634 5637 5641 5645 5647
5515 5518 5518 5518 5521 5523 5525 5527 5529 5530 5533 5537 5540 5540 5542 5543 5545 5547 5550 5551 5551 5554 5555 5558 5565 5569 5570 5573 5581 5586 5590 5597 5599 5604 5612 5608 5616 5619 5623 5625 5629 5634 5636
5501 5503 5504 5505 5507 5509 5510 5512 5515 5519 5519 5522 5527 5527 5528 5529 5532 5534 5535 5537 5539 5542 5545 5548 5551 5555 5557 5560 5566 5571 5580 5583 5587 5593 5596 5602 5604 5608 5612 5613 5617 5622 5624
5487 5489 5490 5490 5491 5492 5495 5497 5500 5503 5502 5505 5515 5522 5522 5518 5518 5519 5521 5524 5526 5529 5532 5534 5538 5541 5544 5544 5549 5556 5560 5566 5574 5578 5586 5586 5590 5594 5599 5601 5606 5609 5613
5472 5473 5474 5475 5476 5478 5479 5482 5484 5488 5492 5490 5493 5499 5513 5521 5512 5505 5507 5509 5511 5514 5517 5521 5524 5525 5528 5531 5534 5538 5542 5550 5558 5562 5567 5574 5575 5580 5584 5588 5593 5597 5600
5457 5457 5457 5458 5460 5462 5462 5463 5466 5470 5476 5478 5479 5480 5482 5485 5498 5500 5494 5494 5494 5499 5502 5505 5508 5510 5512 5516 5519 5522 5527 5532 5538 5544 5550 5556 5561 5566 5570 5575 5579 5583 5588
5437 5438 5440 5441 5442 5443 5445 5445 5447 5449 5453 5459 5461 5464 5466 5469 5473 5479 5490 5486 5484 5484 5487 5489 5493 5497 5499 5502 5506 5508 5511 5516 5521 5526 5532 5538 5544 5551 5556 5560 5565 5569 5573
5421 5421 5421 5423 5424 5426 5426 5427 5427 5429 5432 5436 5441 5444 5447 5451 5455 5457 5463 5470 5468 5472 5472 5475 5479 5482 5483 5487 5490 5492 5496 5501 5505 5511 5516 5523 5530 5535 5539 5543 5549 5553 5558
5404 5403 5402 5403 5404 5405 5406 5407 5408 5409 5412 5415 5418 5422 5424 5427 5429 5433 5437 5444 5449 5454 5457 5461 5464 5467 5470 5472 5476 5477 5482 5487 5491 5495 5502 5508 5514 5515 5520 5526 5532 5539 5543
5385 5382 5380 5379 5380 5382 5383 5386 5387 5387 5390 5393 5397 5401 5404 5407 5409 5412 5416 5420 5428 5438 5442 5446 5449 5449 5452 5455 5456 5459 5465 5470 5475 5481 5486 5491 5495 5498 5502 5509 5516 5522 5527
5368 5364 5363 5362 5361 5362 5364 5367 5368 5367 5369 5372 5375 5379 5382 5386 5389 5391 5394 5398 5403 5410 5422 5429 5427 5430 5432 5435 5439 5443 5448 5453 5457 5463 5467 5472 5477 5481 5487 5494 5500 5503 5510
5349 5348 5347 5346 5345 5344 5345 5347 5349 5350 5351 5355 5357 5359 5362 5366 5369 5372 5374 5377 5380 5383 5390 5400 5404 5408 5411 5415 5420 5425 5430 5435 5440 5445 5450 5456 5460 5463 5470 5477 5483 5487 5493
5332 5332 5332 5332 5332 5331 5331 5332 5334 5335 5336 5339 5342 5344 5346 5348 5350 5352 5355 5358 5361 5364 5370 5377 5381 5383 5386 5392 5400 5406 5411 5417 5422 5428 5434 5438 5442 5447 5453 5459 5465 5472 5476
5319 5319 5319 5317 5318 5317 5318 5319 5320 5322 5322 5324 5326 5329 5331 5333 5335 5336 5338 5341 5344 5347 5350 5356 5360 5364 5367 5371 5379 5385 5392 5398 5404 5411 5416 5421 5426 5430 5436 5442 5449 5454 5458
5307 5305 5304 5305 5304 5304 5304 5305 5304 5307 5308 5310 5311 5312 5314 5316 5317 5320 5323 5326 5328 5331 5335 5339 5343 5345 5348 5353 5361 5368 5374 5378 5385 5391 5397 5402 5407 5413 5419 5426 5431 5436 5440
5293 5291 5288 5288 5288 5288 5288 5289 5289 5291 5292 5293 5295 5295 5296 5297 5298 5301 5304 5306 5308 5312 5315 5318 5324 5326 5331 5336 5343 5349 5356 5360 5366 5372 5377 5383 5388 5394 5400 5406 5412 5414 5419
5273 5273 5273 5271 5272 5272 5272 5273 5273 5275 5277 5276 5278 5280 5279 5279 5280 5281 5283 5285 5287 5289 5293 5299 5305 5309 5313 5318 5321 5328 5336 5339 5343 5347 5355 5360 5368 5375 5380 5385 5390 5393 5396
5259 5257 5259 5255 5256 5256 5256 5255 5255 5256 5258 5256 5259 5260 5262 5264 5263 5263 5267 5268 5268 5265 5271 5279 5284 5289 5294 5298 5302 5308 5312 5316 5323 5324 5328 5339 5343 5352 5357 5361 5366 5371 5376
5248 5247 5242 5238 5239 5239 5242 5238 5243 5245 5244 5246 5247 5249 5249 5251 5251 5251 5252 5254 5254 5257 5260 5261 5266 5269 5272 5276 5282 5284 5287 5295 5300 5304 5305 5315 5317 5327 5333 5340 5346 5350 5356
5235 5232 5229 5227 5228 5226 5228 5233 5234 5234 5235 5237 5237 5238 5239 5238 5238 5238 5239 5241 5241 5241 5245 5248 5253 5255 5257 5260 5262 5268 5270 5275 5281 5284 5282 5294 5297 5309 5312 5318 5323 5330 5335
5222 5219 5217 5217 5216 5217 5220 5221 5222 5222 5224 5224 5225 5225 5225 5225 5224 5225 5226 5225 5227 5230 5231 5234 5239 5242 5245 5247 5249 5250 5254 5257 5266 5269 5267 5274 5280 5288 5291 5300 5305 5308 5313
5211 5209 5209 5209 5210 5210 5209 5209 5209 5208 5209 5210 5212 5212 5212 5214 5212 5211 5212 5212 5215 5217 5219 5224 5228 5229 5231 5233 5234 5234 5238 5242 5249 5255 5252 5253 5259 5264 5274 5284 5288 5291 5296